星链-30598 (STARLINK-30598 )

导读

STARLINK-30598是美国太空探索技术公司(SpaceX)星链互联网卫星星座的一员,于2023年10月18日发射入轨。星链计划旨在通过近地轨道卫星群提供全球高速互联网接入服务,该卫星加入星座后,进一步扩充了星链网络的覆盖范围与服务容量,助力全球偏远地区网络覆盖与应急通信等场景服务。

Basic Information
目录编号:
58079
目录名称:
STARLINK-30598
国际标识:
2023-160E
轨道中心:
EARTH
卫星名称:
星链-30598
卫星全名:
星链-30598 (STARLINK-30598 )
卫星状态:
在轨 (已飞行974 天)
发射日期:
2023-10-18 UTC
国别 :
美国 (US)
星等 :
--
Orbit Information
数据来源 国际轨道数据 AOE轨道数据
星历时间 2026-06-16T19:19:27+0800
2天前
查看轨道信息
2026-06-17T07:00:00+0800
1天前
查看轨道信息
半长轴 6861.188km 6861.18km
偏心率 0.0000714 0.0001295
轨道倾角 42.996° 42.994°
近地点辐角 212.356° 201.377°
升交点赤经 239.988° 237.245°
平近点角 147.725° 317.226°
近地点 482.561km 482.154km
远地点 483.541km 483.932km
周期 94.267分钟 94.267分钟
每日圈数 15.275794 15.275823
Detailed Information
固有亮度:
5
最大亮度:
0.3
卫星平台:
Starlink v2.0 mini
覆盖范围:
全球
运营商:
太空探索技术公司
运营商所在国:
美国
制造商(研发单位):
太空探索技术公司
制造商所在国:
美国
使用方式:
暂无
Satellite Introduction
星链(Starlink)计划是由太空探索技术公司(SpaceX)提出的一个巨型低轨卫星互联网星座项目,计划在2019年至2024年间在太空搭建由约1.2万颗卫星组成的“星链”网络,其中1584颗将部署在地球上空550千米处的近地轨道,并从2020年开始工作。该卫星仍在工作。
2D Orbit Map
3D Orbit Map
Orbit Altitude Analysis Chart
Orbit Inclination Analysis Chart
Orbit Comprehensive Analysis Chart
View Comprehensive Chart